Temp
19 20 20 20 20 20 20 20 20 21 21 22 22 22 22 21 21 21 21 20 20 20 20 20 20 20 20 19 19 19 19 19 19 19 19 19 20 20 19 19 19 20 20 20 20 20 19 19 18 18 18 18 17 17 17 17 17 18 18 18 18 18 18 18 18 17 17 17 17 17 17 17 17 17 17 16 16 16 16 16 16 15 15 15 15
20 20 20 20 20 20 20 20 20 21 22 22 22 21 21 21 21 21 20 20 20 20 20 20 19 20 20 20 19 19 19 19 19 19 19 20 20 19 19 19 20 20 20 20 20 20 19 18 18 17 18 18 17 17 17 17 17 18 18 18 18 18 18 18 17 17 17 17 17 17 17 17 17 16 16 16 16 16 16 16 15 15 15 15 15
20 20 20 20 20 20 20 19 20 21 21 22 21 21 20 20 20 20 20 20 20 20 20 20 19 19 19 19 19 19 19 19 19 19 19 20 20 19 19 19 20 20 20 20 20 19 19 18 17 17 17 17 18 18 17 17 17 17 18 18 18 18 18 17 17 17 17 17 17 17 17 17 17 16 16 16 16 16 15 15 15 15 15 15 15
20 20 20 20 20 20 19 19 20 21 21 21 21 20 20 20 20 20 20 20 20 20 20 19 19 19 19 19 19 19 19 19 19 19 19 19 19 19 19 20 20 20 20 19 19 19 18 18 17 17 17 18 18 18 17 17 17 17 18 18 18 18 18 17 17 17 17 17 17 17 17 16 16 16 16 16 16 16 16 15 15 15 15 15 15
20 19 19 20 19 19 19 19 20 21 21 21 21 20 20 20 20 20 20 20 20 20 20 19 19 19 19 19 19 19 19 19 19 19 19 19 19 19 19 19 19 19 19 19 19 18 17 17 17 17 17 17 18 18 17 17 17 17 17 17 18 18 18 18 17 17 17 17 17 17 17 17 16 16 16 16 16 16 16 15 15 15 15 15 15
20 19 19 19 19 19 19 19 20 21 21 21 21 20 20 20 20 20 20 20 20 20 19 19 19 19 19 19 19 19 19 19 19 19 19 19 18 19 19 19 19 19 19 19 18 18 17 17 17 17 17 17 17 17 17 17 17 17 17 17 17 17 17 17 17 17 17 17 17 17 17 16 16 16 16 16 16 16 16 16 15 15 15 15 15
20 19 19 19 19 19 19 20 20 21 21 20 20 20 20 20 20 20 19 19 19 19 19 19 19 19 19 19 19 19 19 19 19 19 19 19 18 18 19 19 19 19 19 18 18 18 17 17 17 17 17 17 17 17 17 17 17 17 17 17 17 17 17 17 17 17 17 17 17 17 16 16 16 16 16 16 16 16 16 16 15 15 15 15 15
20 19 19 19 19 19 20 19 20 20 20 20 20 20 20 19 19 19 19 19 19 19 19 19 19 19 19 19 19 19 19 19 19 19 19 19 19 18 18 18 19 19 18 18 18 18 17 17 17 17 17 17 17 17 17 17 17 17 17 17 17 17 17 17 17 17 17 16 16 16 16 16 16 16 16 16 16 16 16 16 15 15 15 15 15
20 19 19 19 19 19 20 19 20 20 20 20 20 20 19 19 19 19 19 19 19 19 19 19 19 19 19 19 19 19 19 19 19 19 19 19 19 18 18 18 18 18 18 18 19 18 17 17 17 17 17 17 17 18 18 18 18 17 17 17 17 17 17 17 17 17 17 17 17 17 16 16 16 16 16 16 16 16 16 15 15 15 15 15 15
19 19 19 19 19 19 19 19 20 20 20 20 20 19 19 19 19 19 19 19 19 19 19 19 19 19 19 19 19 19 19 19 19 19 19 19 19 19 18 18 18 18 18 18 20 19 18 17 17 17 17 17 18 18 18 18 18 18 18 18 18 18 17 17 17 17 17 17 17 17 16 16 16 16 16 16 16 16 16 15 15 15 15 15 14
19 19 19 19 19 19 20 20 20 20 20 20 19 19 19 19 19 19 19 19 19 19 19 19 19 19 19 19 19 19 19 19 19 19 19 19 19 19 19 18 18 18 18 18 20 19 18 18 17 17 18 18 18 18 18 18 18 18 18 18 18 18 18 17 17 17 17 17 17 16 16 16 16 16 16 16 16 16 16 15 15 15 15 15 14
19 19 19 19 19 19 20 20 20 20 20 20 19 19 19 19 19 19 19 20 20 20 20 19 19 19 19 19 19 19 19 19 19 19 19 19 19 19 19 18 18 18 18 18 19 19 18 18 18 18 18 18 18 18 18 19 19 19 19 18 18 18 18 17 17 17 17 17 16 16 16 16 16 16 16 16 15 15 15 15 15 15 15 15 14
19 20 19 19 19 19 20 20 20 19 20 20 19 20 20 19 19 19 19 20 20 20 20 19 19 19 19 19 19 19 19 19 19 19 19 19 19 18 18 18 18 18 18 19 19 19 18 18 18 18 18 18 19 19 19 19 19 19 19 18 18 18 18 18 17 17 17 17 16 16 16 16 16 16 16 16 16 16 15 15 15 15 15 15 14
19 20 19 19 19 19 20 20 20 20 19 19 20 20 19 19 19 19 19 19 19 19 19 19 19 19 19 19 19 19 19 19 19 19 19 19 18 18 18 19 19 19 19 19 19 19 19 19 19 19 19 19 19 19 19 19 19 19 19 18 18 18 18 18 18 17 17 16 16 16 16 16 16 16 16 16 16 16 15 15 15 15 14 14 14
20 20 19 19 19 19 20 20 20 20 20 20 20 20 19 19 19 19 19 19 19 19 19 19 19 19 19 19 19 19 19 19 19 19 18 18 18 18 18 19 19 19 19 19 19 19 19 19 19 19 19 19 19 19 19 19 19 19 19 19 19 18 18 18 17 17 17 16 16 16 16 16 16 16 15 15 15 15 15 15 15 15 14 14 14
21 19 19 19 19 20 20 20 20 20 20 20 20 19 19 19 19 19 19 19 19 19 19 19 19 18 18 18 18 19 19 19 19 18 18 18 18 18 18 19 19 19 19 19 19 19 19 19 19 19 19 19 19 19 19 19 18 18 19 19 19 18 18 18 18 17 17 17 16 16 16 16 16 15 15 15 15 15 15 15 15 15 15 14 14
21 19 19 19 19 20 20 20 20 20 20 20 19 19 19 19 19 19 19 19 19 19 19 19 19 18 18 18 18 18 18 18 18 18 18 18 18 18 18 19 19 19 19 19 19 19 19 19 19 19 19 19 20 20 19 19 18 18 18 18 19 18 18 18 18 17 17 17 16 16 16 16 15 15 15 15 15 15 15 15 15 15 14 14 14
20 19 19 19 19 19 19 20 19 20 19 19 19 19 19 19 19 19 19 19 19 19 20 19 19 18 18 18 18 18 18 18 18 18 18 18 18 18 18 19 19 19 19 19 18 19 19 19 19 19 19 20 20 20 20 19 19 18 18 18 18 18 18 18 18 17 17 17 16 16 16 16 16 15 15 15 15 15 15 14 15 15 14 14 14
20 19 19 19 19 19 19 19 19 20 19 19 19 19 19 19 19 19 19 19 19 19 19 19 19 18 18 18 18 18 18 18 18 18 18 18 18 18 18 19 19 19 19 19 18 18 19 19 19 19 19 20 20 20 20 20 19 18 18 18 18 18 18 18 18 17 17 17 16 16 16 16 16 16 15 15 15 15 15 14 15 14 14 14 14
19 19 19 19 19 19 19 19 20 20 19 19 19 19 19 19 19 19 19 18 19 19 19 19 18 18 18 18 17 17 17 17 17 18 18 18 18 18 18 19 19 19 19 19 18 18 18 19 19 19 20 20 20 20 20 20 19 18 18 19 18 18 18 18 18 17 17 17 16 16 16 16 16 15 15 15 15 15 14 14 14 14 14 14 14
19 19 19 19 19 19 19 19 20 19 19 20 19 19 19 19 19 19 19 19 19 19 19 19 18 18 17 18 17 17 17 17 17 17 18 18 18 18 18 19 19 19 19 19 19 18 18 19 19 19 20 20 20 20 20 20 19 18 18 19 18 18 18 18 18 18 17 16 16 16 15 15 15 15 15 15 15 15 15 15 14 14 14 14 14
18 19 18 19 19 18 19 20 20 20 19 19 19 19 19 19 19 19 19 19 19 19 19 19 19 18 18 18 18 18 17 17 17 17 18 18 18 18 18 19 19 19 19 20 19 19 19 19 19 19 20 20 20 20 20 20 20 19 18 18 18 18 18 18 18 18 17 16 16 15 15 15 15 15 15 15 15 15 15 15 14 14 14 14 14
18 19 18 18 19 18 19 20 20 19 19 19 19 19 19 19 19 19 19 19 19 19 19 19 19 19 18 18 18 18 18 17 17 17 18 18 17 18 18 19 19 19 19 20 20 19 19 19 19 19 20 20 20 20 20 20 20 19 18 18 18 18 19 18 18 18 17 16 16 15 15 16 15 15 15 15 15 15 15 15 14 14 14 14 14
18 19 19 18 19 19 19 19 20 19 19 19 19 19 19 19 19 19 19 19 19 19 19 19 19 18 18 18 18 18 17 17 17 17 18 18 18 17 18 19 19 19 19 19 20 20 20 20 19 20 20 20 20 21 20 20 20 19 19 19 19 19 19 18 18 18 17 16 16 15 15 15 15 15 15 15 15 15 15 15 15 14 14 14 14
19 19 19 19 19 19 19 19 19 19 19 19 19 19 19 19 19 19 19 19 19 19 19 19 19 18 18 18 17 17 17 17 17 17 18 18 18 18 18 19 19 19 19 19 19 20 20 20 20 20 20 20 20 20 20 20 20 19 19 19 19 19 19 18 18 18 17 16 16 15 15 15 16 16 16 15 15 15 15 15 15 14 14 14 14
19 19 19 19 19 19 19 19 19 19 19 19 19 19 19 19 19 19 19 19 19 19 19 19 18 18 18 18 18 18 17 17 18 18 18 19 19 19 19 19 19 19 19 19 19 19 19 20 20 20 20 20 20 20 20 20 20 18 19 19 19 19 19 18 18 18 17 17 16 15 15 15 16 16 16 16 15 15 15 15 15 14 14 14 14
19 19 19 19 19 19 19 19 19 19 19 19 19 19 19 19 19 19 19 19 19 18 19 18 18 18 18 18 18 18 18 18 18 18 18 19 19 19 19 19 19 19 19 19 19 19 19 19 19 19 19 19 19 19 20 20 20 18 18 19 19 19 19 18 18 18 18 17 16 16 16 15 16 16 16 16 15 15 15 15 15 14 14 14 14
19 19 19 19 19 19 19 19 19 19 19 19 18 18 19 19 18 19 19 19 19 19 19 18 19 19 18 18 18 18 18 18 18 19 19 19 19 19 19 19 19 19 19 19 19 19 19 19 19 19 19 19 19 19 19 19 20 19 18 19 19 19 19 19 19 18 18 17 17 16 16 16 15 15 16 15 15 15 15 15 15 15 14 14 14
18 19 19 19 19 19 19 19 19 19 19 19 19 19 19 18 18 19 19 19 19 19 19 19 19 19 19 19 18 18 18 18 19 19 19 19 19 19 19 19 19 19 19 19 19 19 19 19 18 19 19 19 19 19 19 20 20 19 19 19 19 19 19 19 19 18 18 18 17 17 16 16 16 15 16 15 15 15 15 15 15 15 14 14 14
18 18 19 19 19 19 19 19 19 19 19 19 19 19 19 19 18 19 19 19 19 19 19 19 19 19 19 19 18 19 19 19 19 20 20 20 20 20 20 19 19 19 19 19 19 19 19 19 19 19 19 19 19 19 19 20 20 20 20 20 20 19 19 19 19 19 18 18 18 17 17 17 16 16 16 15 15 15 15 15 15 15 15 15 14
18 18 18 19 19 19 19 19 19 19 19 19 19 19 19 19 19 19 19 19 19 19 19 19 19 19 19 19 19 19 19 19 19 19 20 20 20 20 20 20 19 19 19 19 19 19 19 19 19 19 19 19 20 20 20 20 20 20 20 20 20 19 19 19 19 19 19 18 18 18 17 17 17 16 16 15 15 15 16 15 15 15 15 15 15
18 18 18 18 19 19 19 19 19 19 19 19 19 19 19 19 19 19 19 19 19 19 19 19 19 19 19 19 19 19 19 19 19 19 20 20 20 20 20 19 19 19 19 19 19 19 19 19 19 19 20 20 20 20 20 20 20 20 20 20 20 20 20 20 19 19 19 19 19 18 18 18 18 17 17 16 16 15 16 16 16 16 15 16 16
18 18 18 18 18 19 19 19 19 19 19 19 19 19 19 19 19 19 19 19 19 19 19 19 19 19 19 19 19 19 19 19 19 19 19 20 20 20 20 19 19 19 19 19 20 19 19 19 19 19 20 20 20 21 20 20 21 20 20 20 20 20 20 20 20 20 19 19 19 19 18 18 18 18 17 17 16 16 16 16 16 16 16 16 15
18 18 18 18 18 19 19 19 19 19 19 19 19 19 19 18 19 19 19 19 19 19 20 19 20 19 19 19 19 19 19 19 19 20 20 20 20 20 20 20 20 20 19 19 20 19 19 20 20 20 20 20 20 21 20 21 21 20 20 20 20 20 20 20 20 20 20 19 19 19 19 19 19 18 18 18 17 17 17 17 16 16 16 16 15
18 18 18 18 18 18 19 19 19 19 19 19 19 19 19 18 18 19 19 19 19 19 19 20 20 19 19 19 19 19 19 19 20 20 20 19 20 20 20 20 20 20 20 20 20 20 20 20 20 20 20 20 20 20 20 20 20 20 20 20 20 20 20 20 20 20 20 20 19 19 19 19 19 19 19 18 18 18 18 17 17 17 16 16 16
18 18 18 18 18 18 18 19 19 19 19 19 19 19 19 19 19 19 19 19 19 19 19 19 19 19 19 19 19 19 19 19 19 20 20 20 20 20 20 20 20 20 20 20 20 20 20 20 20 20 20 20 20 20 20 20 20 20 20 20 20 20 20 20 20 20 20 20 20 19 19 19 19 19 19 19 18 18 18 18 18 17 17 16 16
18 18 18 18 18 18 18 18 19 19 19 19 19 19 19 19 19 19 20 20 20 19 19 19 19 19 19 19 19 18 18 19 19 19 20 20 20 20 20 20 20 20 20 20 20 20 20 20 20 20 20 20 20 20 20 20 20 20 20 20 20 20 21 20 20 20 20 20 20 20 20 20 19 19 19 19 19 19 18 18 18 18 18 17 17
18 18 18 18 18 18 17 18 18 18 19 19 19 19 19 19 19 19 20 20 20 20 19 19 19 19 20 19 19 19 18 19 19 19 20 20 20 20 20 20 20 20 20 20 20 20 20 20 20 20 20 20 20 20 20 21 21 20 20 20 20 20 21 21 21 20 20 20 20 20 20 20 20 20 19 19 19 19 19 19 19 18 18 18 18
18 18 18 18 18 18 17 17 18 18 18 19 19 19 19 19 19 19 19 19 20 20 19 19 19 19 20 19 19 19 19 19 20 20 20 20 20 20 20 20 20 20 20 20 20 20 20 20 20 20 20 20 20 20 20 21 21 21 21 20 20 20 21 21 21 21 20 20 20 20 20 20 20 20 20 20 20 19 19 19 19 19 19 19 19
18 18 18 18 18 18 17 17 17 18 18 18 18 19 19 19 19 19 19 19 19 19 19 19 19 19 19 20 19 19 19 20 20 20 20 20 20 20 20 20 20 20 20 20 20 20 20 20 20 20 20 19 20 20 20 21 21 21 21 21 21 20 20 21 21 21 21 21 20 20 20 20 20 20 20 20 20 20 20 19 19 19 19 19 19
18 18 18 18 18 18 18 17 17 18 18 18 19 19 19 19 19 19 19 19 19 19 19 19 19 19 19 19 19 19 19 19 20 19 19 19 20 20 20 20 20 20 20 20 20 20 20 20 20 20 20 19 20 20 20 20 21 21 21 21 21 21 21 21 21 21 21 21 21 20 20 20 20 20 20 20 20 20 20 20 20 20 20 19 19
18 18 18 18 18 18 18 18 18 18 18 18 19 19 19 19 19 19 20 20 20 19 19 19 19 19 19 19 19 19 19 19 20 20 19 19 19 19 19 19 20 20 20 20 20 20 20 20 20 20 20 20 20 20 20 20 20 20 20 20 20 21 21 21 21 21 21 21 21 21 21 20 20 20 20 20 20 20 20 20 20 20 20 20 20
18 18 18 18 18 18 18 18 18 18 18 18 19 19 19 20 20 20 20 20 20 20 20 19 19 19 19 19 19 19 19 19 20 20 19 19 19 19 19 19 19 20 20 20 20 20 20 20 20 20 20 20 20 20 20 20 20 20 19 19 20 20 21 21 21 21 21 21 21 21 21 21 21 21 20 20 20 20 20 20 20 20 20 20 20
18 18 18 18 18 18 18 18 18 18 18 18 19 19 19 19 19 19 19 19 19 19 19 19 19 19 19 19 19 19 19 20 20 20 20 19 19 19 19 19 19 19 20 20 20 20 20 20 20 20 20 20 20 20 20 20 20 20 19 19 19 19 20 20 20 21 21 21 21 21 21 21 21 21 21 20 20 21 21 21 21 20 20 20 20
19 19 19 18 18 18 18 18 18 18 18 18 18 19 19 19 19 19 18 18 18 19 19 19 19 19 19 19 19 19 20 20 20 20 20 20 19 19 19 19 19 19 19 20 20 20 20 20 20 20 20 20 20 20 20 20 20 20 20 19 19 19 20 20 20 21 21 21 21 21 21 21 21 21 21 21 21 21 21 21 21 21 20 20 20
19 19 19 19 18 18 18 18 18 18 18 18 18 18 18 18 18 18 18 18 18 18 19 19 19 19 19 20 19 19 19 19 19 20 20 20 19 19 19 19 19 19 19 19 20 20 20 20 20 20 20 20 20 19 20 20 20 20 20 20 20 20 20 20 20 20 21 21 21 21 21 21 21 21 21 21 21 21 21 21 21 21 21 21 21
19 19 19 19 19 19 19 19 18 18 18 18 18 18 18 18 18 18 17 17 17 18 19 19 19 19 19 20 20 19 19 19 19 19 19 19 19 19 19 19 19 19 19 19 19 20 20 20 20 20 20 20 19 19 20 20 19 19 20 20 21 21 20 20 20 20 20 21 21 21 21 21 21 21 21 22 21 21 21 21 21 21 21 21 21
19 20 19 19 19 19 19 19 19 18 18 18 18 18 18 18 18 18 17 17 18 18 19 19 19 19 19 19 19 19 19 19 19 19 19 19 19 19 19 19 19 19 19 19 19 19 19 19 19 20 20 20 19 19 19 20 19 19 20 20 20 20 20 20 20 20 20 20 21 21 21 21 21 21 21 22 21 21 21 21 21 21 21 21 21
20 20 20 19 19 19 19 19 19 19 19 18 18 18 18 18 18 18 18 18 18 18 19 19 19 19 19 19 19 19 19 19 19 19 19 19 19 19 19 19 19 19 19 19 19 19 19 19 19 19 20 20 19 19 19 20 20 20 20 20 20 20 20 20 20 20 20 20 21 20 20 21 21 21 22 22 22 22 22 22 21 21 21 21 21
20 20 20 20 19 19 19 19 19 19 19 19 19 18 18 18 18 18 18 18 18 18 18 19 19 19 19 19 19 19 19 19 19 19 19 19 19 19 19 19 19 19 19 19 19 19 19 19 19 19 20 20 20 19 19 19 19 19 20 20 20 20 20 20 20 20 20 20 20 20 19 20 21 21 22 21 22 22 22 22 21 21 21 21 21
20 20 19 19 19 19 19 19 19 19 19 19 19 19 18 18 18 18 18 18 18 18 19 19 19 19 19 19 19 19 19 19 19 18 18 18 18 18 18 19 19 19 19 19 19 19 19 19 19 19 19 20 20 20 19 19 19 19 19 19 20 20 21 21 21 21 20 19 20 19 19 20 20 20 21 21 21 21 21 21 21 21 21 21 21
Height
815 814 814 814 815 815 816 816 817 817 817 817 817 818 819 820 821 822 823 823 823 823 822 823 823 823 823 823 824 824 825 825 826 826 826 826 826 826 826 826 826 827 827 826 827 827 827 828 828 828 828 829 829 829 829 829 829 830 830 831 830 830 830 830 830 831 831 830 830 830 830 830 830 830 831 831 831 831 831 831 831 832 832 833 833
813 814 813 814 815 814 816 816 817 817 818 818 818 819 821 822 823 824 824 824 824 824 824 824 824 824 825 824 825 826 826 826 827 827 827 827 827 828 827 828 828 828 828 828 828 827 828 828 829 829 830 830 830 830 830 831 831 832 832 832 832 832 832 832 832 833 833 832 832 831 832 831 831 832 832 832 833 833 833 833 833 833 834 834 834
811 812 812 813 815 815 816 816 817 818 818 819 820 821 822 824 824 825 825 826 826 826 826 826 826 826 826 826 827 827 828 828 828 828 829 829 829 829 829 829 829 829 829 829 828 828 829 829 830 830 831 831 832 832 832 833 833 834 834 834 833 834 834 834 834 834 834 833 833 833 833 833 833 833 834 834 834 834 834 834 834 834 835 836 835
810 811 812 814 815 815 816 817 818 818 819 820 821 822 824 825 825 826 827 827 827 828 828 828 828 828 828 828 828 828 829 829 830 830 830 830 830 831 830 831 831 831 830 830 829 829 830 830 831 831 832 833 833 834 834 835 835 835 835 835 835 835 836 836 837 836 836 835 834 833 834 834 834 835 835 835 835 835 835 835 835 836 836 837 836
812 812 813 815 816 816 816 817 818 819 820 821 823 824 825 826 826 827 828 828 829 829 829 830 830 830 830 829 830 830 831 831 831 832 832 832 832 832 832 832 832 832 831 831 830 830 831 831 832 832 833 834 835 835 836 836 836 837 836 836 836 837 837 838 838 838 837 836 835 834 835 835 836 836 837 837 837 837 837 836 837 837 838 838 837
812 813 814 815 817 817 817 817 818 819 821 822 824 826 827 827 827 828 829 830 830 830 830 831 831 832 832 832 832 832 833 833 833 834 834 834 834 834 834 833 833 833 832 832 832 832 832 833 833 834 834 834 835 836 837 837 838 837 838 838 838 838 838 839 839 839 838 837 836 836 836 836 837 838 838 838 838 838 838 838 838 838 839 839 839
811 813 815 815 817 818 818 819 819 821 822 824 826 827 828 828 828 829 830 831 831 831 831 832 833 833 833 834 834 834 835 835 836 836 836 836 836 836 835 835 834 834 834 833 833 833 833 834 835 835 836 836 836 837 838 838 839 839 839 839 839 840 839 840 840 840 839 838 837 837 837 837 838 839 839 839 839 839 839 839 839 839 840 840 840
811 813 814 816 818 819 820 820 821 822 823 825 827 828 829 830 830 831 832 832 833 833 833 833 834 835 835 835 836 836 836 837 837 837 837 837 837 837 837 836 836 835 835 835 835 835 835 836 837 837 837 837 838 838 838 839 840 840 841 841 841 841 841 841 841 841 840 839 839 839 839 839 840 840 840 839 840 840 839 839 840 841 841 841 841
811 813 814 816 818 819 821 822 822 823 824 826 827 829 830 831 832 832 833 834 834 834 834 835 835 836 836 837 837 837 837 838 838 838 838 838 838 838 838 838 837 837 836 836 836 836 837 837 838 839 839 839 839 839 840 840 841 842 842 842 842 841 841 842 842 841 841 840 840 840 840 840 841 841 841 840 841 841 840 840 840 841 842 842 842
812 813 815 816 818 819 821 822 823 824 825 827 828 830 831 832 833 834 835 835 835 835 836 836 837 837 837 838 838 838 839 839 839 839 839 839 839 839 839 839 839 838 838 837 837 837 838 839 840 840 840 839 840 840 841 841 842 843 844 844 843 842 842 842 842 842 842 841 841 841 841 842 842 842 842 842 842 842 841 841 841 842 843 843 843
813 814 816 817 818 819 820 823 824 825 826 828 830 831 833 833 834 835 835 836 836 836 837 838 838 838 838 838 839 839 840 840 840 840 840 840 840 840 840 840 840 839 839 839 838 838 839 839 840 840 840 841 841 842 842 843 843 844 845 845 844 843 843 843 843 843 843 842 842 842 843 843 843 843 843 843 843 843 843 843 843 843 844 844 844
814 815 817 818 819 820 821 823 824 826 827 829 831 832 834 834 835 836 836 836 837 837 838 838 839 839 839 839 840 840 840 840 840 840 841 841 841 841 841 840 840 840 840 839 839 839 840 840 840 841 842 842 843 843 843 844 845 846 846 845 844 844 844 844 844 844 844 844 844 843 844 844 844 845 844 844 844 844 844 844 844 844 845 845 845
815 816 817 819 820 822 822 824 825 827 829 830 832 833 834 835 836 836 836 837 837 838 839 839 839 840 840 840 840 841 841 841 841 841 841 841 841 841 841 841 841 841 840 840 840 840 840 841 842 842 843 843 844 844 844 845 846 846 845 845 845 845 845 845 845 845 845 845 845 845 845 845 846 846 846 846 846 846 846 845 845 845 846 846 846
815 816 818 820 821 823 824 825 827 828 830 831 832 833 834 835 836 836 837 837 838 839 839 840 840 840 840 841 841 841 842 842 842 842 842 842 842 842 841 841 841 841 841 841 841 841 841 842 843 843 844 844 845 845 845 846 846 846 845 845 845 846 846 846 846 846 846 846 846 846 846 847 847 847 847 847 847 847 847 847 847 847 847 847 847
816 817 819 821 823 824 825 826 827 829 830 831 832 833 834 835 836 836 837 837 838 839 840 840 840 840 840 841 841 842 842 843 843 843 843 842 842 842 841 841 842 842 842 842 842 842 842 842 844 844 845 846 846 846 846 847 846 845 845 845 846 847 847 847 848 847 847 847 847 847 847 848 848 848 848 849 849 848 848 849 848 848 848 848 848
817 818 820 821 823 825 826 827 828 829 830 831 832 833 834 835 836 837 838 838 839 839 840 840 841 841 841 842 842 842 843 844 844 843 843 843 843 842 842 842 842 842 843 843 842 842 843 843 844 845 846 846 847 847 847 847 847 846 845 846 847 847 848 848 848 848 848 848 848 848 848 849 849 849 850 850 850 849 849 850 850 850 849 849 849
818 820 821 823 824 825 826 827 828 829 831 832 833 834 835 836 837 838 839 840 840 840 840 841 841 841 842 842 843 844 844 844 844 844 844 844 843 843 843 843 843 843 843 843 843 843 843 844 845 846 846 847 847 848 848 848 847 847 846 847 848 848 849 849 849 849 848 848 848 849 849 850 850 851 851 851 851 851 851 851 851 851 850 850 850
820 821 822 825 825 826 827 828 829 830 832 833 834 835 836 837 838 839 840 841 841 841 841 842 842 842 843 843 844 845 845 845 844 844 844 844 844 844 844 844 844 844 844 844 844 843 844 845 846 846 847 848 848 848 848 848 848 848 848 849 849 849 850 850 849 849 849 849 849 849 850 851 852 852 852 852 852 852 852 852 852 852 851 851 851
822 822 823 826 827 828 828 828 829 831 833 833 835 836 837 837 838 839 840 841 841 841 842 843 843 843 844 844 845 845 845 845 845 845 844 845 845 845 845 845 845 845 845 844 844 844 844 845 846 847 848 848 848 848 849 849 849 849 849 850 850 850 851 851 850 850 850 850 850 850 850 851 852 853 853 853 853 853 853 853 853 853 853 852 852
824 824 825 827 828 829 829 830 831 832 833 834 835 836 837 837 838 839 839 841 841 842 843 843 844 844 844 844 845 845 845 845 845 845 844 845 845 845 846 846 846 845 845 845 845 845 845 846 846 847 848 848 848 849 849 850 850 850 850 851 851 851 851 851 851 851 851 851 851 851 851 852 853 854 854 854 854 854 854 854 854 854 854 853 853
825 825 826 827 828 830 829 831 832 833 834 834 835 836 837 837 838 839 839 840 841 842 843 844 844 844 844 844 844 844 844 844 844 844 845 845 845 846 847 847 847 846 846 845 845 845 845 846 847 848 849 849 849 849 850 850 851 852 851 852 852 852 852 852 852 852 852 851 851 851 852 852 853 854 855 855 855 855 855 855 856 855 855 855 854
827 826 827 827 828 830 830 831 832 833 834 834 835 836 837 837 838 839 839 840 840 842 842 843 844 843 844 844 844 844 843 844 843 844 845 845 846 846 847 847 847 847 847 846 846 846 846 847 848 849 849 850 850 850 850 850 852 852 853 853 853 853 854 854 853 853 852 852 852 852 853 853 854 855 855 856 856 856 856 856 856 856 856 856 855
827 827 828 828 829 830 830 831 832 833 834 835 836 836 837 837 838 839 839 840 841 842 842 843 844 844 844 844 844 844 843 843 843 844 845 846 846 847 847 848 848 848 848 847 847 847 847 848 849 850 850 850 850 850 851 851 852 853 853 854 854 854 855 855 854 854 853 853 853 853 853 854 855 855 856 856 857 857 857 857 857 857 857 857 856
827 827 827 828 829 830 830 831 832 833 834 835 836 837 837 838 838 839 839 840 841 842 842 843 843 844 844 844 845 844 844 844 845 845 845 846 847 847 847 848 848 848 849 849 849 849 849 849 850 850 851 851 851 851 852 852 853 853 854 854 855 855 855 855 855 855 854 854 854 854 854 855 855 856 857 857 857 857 858 858 858 858 858 858 857
826 826 827 828 828 829 830 832 833 834 835 836 836 837 837 838 838 839 840 840 841 842 842 843 843 843 843 844 845 845 846 846 846 846 846 847 847 848 848 848 848 849 850 850 850 850 850 850 851 851 852 852 852 852 852 853 854 854 855 855 855 856 856 856 856 856 855 855 855 855 855 855 856 857 857 857 858 858 858 858 858 858 858 858 857
825 826 826 827 827 829 830 831 833 833 834 835 836 836 836 837 838 839 840 841 842 842 842 843 843 843 843 844 845 846 846 846 847 847 847 847 848 848 848 849 849 849 850 850 851 851 851 851 851 852 853 853 854 854 854 854 854 855 855 855 856 856 856 856 856 856 855 855 855 855 855 856 857 857 858 858 858 858 859 859 859 859 858 858 858
824 825 825 826 827 828 829 830 832 833 834 835 836 837 837 838 839 840 841 841 842 842 843 843 843 843 844 845 845 845 846 846 847 847 847 848 848 848 849 849 850 850 850 851 851 851 851 851 852 853 854 854 854 855 855 855 855 856 856 856 856 856 856 856 856 856 856 856 856 856 856 856 857 858 858 858 859 859 859 859 859 859 859 859 858
823 824 824 825 826 827 829 829 831 832 833 834 836 837 838 838 839 840 841 841 842 842 843 844 844 844 845 845 845 846 846 846 846 847 847 848 848 849 849 850 850 851 851 851 851 851 851 851 852 854 854 855 855 855 855 855 855 856 857 856 856 856 856 856 857 856 856 856 856 856 856 857 857 858 858 858 859 859 859 859 859 859 859 859 859
821 822 823 824 826 827 828 829 830 831 832 834 835 837 837 839 840 840 841 842 842 842 843 844 844 845 845 845 846 846 846 846 846 846 847 848 849 849 849 850 850 851 851 851 851 851 851 851 852 853 854 854 854 855 855 855 855 856 857 857 856 856 856 857 857 857 857 857 856 857 857 857 857 857 858 858 859 859 859 859 859 859 859 859 859
821 821 823 824 825 826 827 828 829 830 831 833 835 836 838 839 840 840 841 842 842 842 843 844 844 845 846 845 846 846 846 847 846 847 847 848 848 849 850 850 851 851 851 851 851 851 851 851 852 852 853 854 854 855 855 855 855 856 857 857 856 856 856 857 857 857 857 857 857 857 857 857 857 857 858 858 858 859 859 859 859 859 859 859 859
821 821 822 823 824 826 827 828 828 829 830 832 834 836 837 838 839 840 841 841 842 842 843 844 844 845 846 846 846 847 847 847 847 848 848 848 849 849 849 850 850 851 851 851 852 852 851 851 852 852 853 853 854 854 855 855 856 857 857 857 857 856 856 857 857 857 857 857 857 857 857 857 857 857 857 858 858 858 858 859 859 859 859 859 859
820 821 822 823 824 825 826 827 828 828 830 832 833 835 836 837 838 839 841 841 842 842 843 844 844 845 845 846 846 847 847 848 848 848 848 849 849 849 849 849 850 850 851 851 852 852 851 851 851 852 852 852 853 854 856 856 856 857 857 857 857 857 856 857 857 857 857 857 857 857 857 857 857 857 857 857 857 858 858 859 859 859 859 859 859
819 820 822 823 824 825 826 827 827 828 830 831 833 834 835 836 837 839 840 841 841 842 842 843 844 845 845 846 847 847 848 848 848 848 848 849 849 849 849 849 849 850 851 851 851 851 851 851 851 852 852 853 854 855 855 856 856 856 856 857 857 857 856 856 857 856 857 857 857 857 857 857 857 857 857 857 857 857 858 858 858 859 859 859 858
817 819 821 822 824 825 826 826 827 828 829 831 832 833 834 836 837 838 839 840 841 841 842 843 844 845 845 846 847 847 848 848 848 848 848 848 848 848 848 849 849 850 850 850 851 851 850 850 851 852 852 853 853 854 855 855 856 856 856 856 857 857 856 856 856 856 856 857 857 857 857 857 857 857 857 857 857 857 857 857 858 858 859 858 858
815 817 819 821 823 824 825 826 827 828 829 831 831 832 834 835 836 837 839 840 840 841 841 842 843 844 845 846 847 847 847 848 848 848 848 848 848 848 848 849 849 849 849 850 850 850 850 850 851 851 852 852 853 853 854 855 855 855 856 856 856 856 856 856 856 856 856 856 856 857 857 857 857 857 857 856 856 856 857 857 857 857 858 858 858
813 815 818 820 822 823 825 826 827 828 829 831 831 832 833 834 835 836 838 839 840 841 841 842 843 844 845 847 847 847 847 847 848 847 848 848 848 848 848 849 849 849 849 849 849 850 850 850 851 851 851 852 852 853 854 854 854 855 855 856 856 856 856 855 855 855 855 855 856 856 856 856 856 856 856 856 856 856 856 856 856 856 857 857 857
813 815 816 818 820 822 824 825 826 828 829 830 831 832 833 834 835 836 837 838 839 840 841 842 843 844 845 846 847 847 847 847 847 847 847 848 848 848 848 849 849 849 849 849 849 849 850 850 851 851 851 851 852 852 853 853 854 854 854 854 855 855 855 855 854 854 854 854 855 855 855 855 855 856 856 856 856 855 856 856 856 856 856 856 856
813 814 816 817 819 821 823 824 826 827 829 830 831 831 832 833 834 835 836 837 839 840 841 842 843 844 845 846 847 847 847 846 847 847 847 848 848 848 849 849 849 849 849 849 849 850 850 850 850 850 851 851 851 852 852 852 852 853 853 853 854 854 854 854 853 853 853 853 853 853 854 854 854 854 855 855 855 855 855 855 855 855 855 855 856
812 814 815 817 819 821 822 824 825 826 828 829 830 831 831 832 834 834 836 837 838 839 840 841 842 844 844 845 846 846 846 846 847 847 847 848 848 848 849 849 849 849 849 849 849 850 850 850 850 850 850 850 851 851 851 851 851 852 852 853 853 853 853 853 853 852 852 852 852 852 852 853 853 853 854 854 854 854 854 854 854 854 854 854 855
811 813 814 816 818 820 821 823 824 825 827 828 829 830 831 832 833 834 835 836 838 839 840 841 842 843 844 845 846 846 846 846 847 847 847 848 848 848 848 849 849 849 849 849 849 849 849 849 849 849 850 850 850 850 850 850 850 851 851 852 852 852 852 852 851 851 851 851 851 851 851 852 852 852 852 852 853 852 852 853 853 853 853 853 854
810 812 813 814 816 818 820 821 823 824 826 827 828 829 830 832 833 834 835 836 837 838 840 841 842 843 844 844 845 845 846 846 847 847 847 848 848 848 848 848 849 849 848 848 848 849 849 849 849 849 849 849 849 849 849 849 850 850 850 851 851 851 851 850 850 850 850 850 850 850 850 850 850 850 851 851 851 851 851 851 851 852 852 852 852
809 811 812 813 815 817 819 820 822 823 824 825 827 828 829 831 832 833 834 836 837 838 839 841 842 843 843 844 844 845 845 846 846 847 847 847 847 848 848 848 848 848 848 847 848 848 848 848 848 848 849 849 848 848 848 848 849 849 850 850 850 849 849 848 848 848 848 848 849 849 849 849 849 849 849 849 849 850 850 850 850 850 850 851 851
808 810 812 813 815 816 818 820 821 822 823 824 825 826 828 830 832 833 834 836 836 837 839 840 841 842 843 843 843 844 844 845 845 846 846 846 846 847 847 847 847 847 847 847 847 847 847 847 847 848 848 847 847 846 847 847 848 848 849 850 850 849 849 847 846 846 847 847 848 848 848 848 848 848 848 848 848 848 848 848 848 848 849 849 850
807 809 811 813 815 816 818 819 821 822 822 823 825 826 827 829 831 832 833 835 836 837 838 839 840 841 841 842 842 843 843 843 844 845 845 845 845 846 846 846 847 847 846 846 846 846 846 846 847 847 846 846 845 845 846 846 846 847 848 850 849 850 850 847 845 845 845 846 846 847 847 847 846 847 847 847 846 846 846 846 846 847 848 848 849
806 807 810 812 814 816 817 819 821 822 823 823 825 826 827 828 830 831 832 834 835 836 837 837 838 839 840 840 841 841 842 842 843 844 844 844 845 845 845 845 846 846 845 845 845 845 845 845 846 846 845 845 844 845 845 845 845 845 846 847 848 850 849 846 845 844 843 844 845 845 845 846 845 845 845 845 845 845 844 844 845 846 847 847 847
805 807 809 811 813 815 817 819 820 822 823 824 825 826 826 827 828 829 830 831 833 833 834 835 836 837 838 839 840 840 841 841 842 843 843 843 844 844 844 844 845 845 844 844 844 844 844 844 844 844 844 844 844 844 843 843 844 844 844 844 845 846 845 844 846 845 843 843 844 844 844 844 844 844 844 843 843 843 843 844 844 844 845 845 846
805 807 809 811 813 814 816 818 820 821 823 824 825 826 826 827 828 829 830 831 831 832 833 834 835 837 837 838 839 839 840 840 841 842 842 843 843 843 843 844 844 843 843 843 842 842 843 843 843 843 843 843 843 843 842 843 843 843 843 843 842 842 842 843 844 845 845 844 843 843 843 843 843 843 842 842 842 842 842 843 843 843 843 844 844
807 809 810 812 813 814 816 817 819 821 822 824 825 826 826 827 828 829 830 831 831 832 833 834 835 836 837 837 838 838 838 839 840 840 841 842 842 842 842 842 842 842 842 841 841 841 842 842 842 842 842 842 842 842 842 842 842 841 841 841 841 841 841 841 841 842 844 845 844 843 842 842 842 841 841 841 841 841 841 842 842 842 842 843 843
809 810 811 813 814 815 816 817 819 820 822 823 824 826 827 828 829 829 830 831 831 832 833 834 835 835 835 836 836 836 837 837 838 839 840 840 841 841 841 841 841 841 840 839 839 839 840 840 840 840 840 840 840 841 841 841 841 841 840 840 840 840 840 840 839 840 841 843 843 842 842 841 840 840 839 839 840 840 840 841 841 842 842 842 842
810 811 812 813 814 815 816 817 818 820 821 823 824 825 826 827 828 829 829 830 831 832 832 833 833 834 834 834 834 835 835 835 836 837 838 838 839 840 840 840 840 839 839 838 838 838 838 838 838 839 839 839 839 839 839 840 840 840 840 840 839 839 839 838 838 838 838 839 841 841 840 840 839 838 838 838 838 838 839 839 840 841 841 841 841
810 812 813 813 814 815 816 817 818 819 821 822 823 824 826 827 828 828 829 830 830 831 831 831 832 833 833 833 833 833 833 834 834 835 836 837 838 838 838 838 838 838 837 836 836 836 836 836 837 837 837 837 837 837 837 838 838 839 839 839 838 838 837 837 836 836 837 837 838 839 839 839 838 837 837 837 837 837 838 838 839 840 840 840 840
Wind_Speed
13 14 15 13 14 14 13 14 14 15 17 18 17 16 14 13 14 15 15 15 15 14 14 13 13 13 14 14 15 16 16 17 18 19 20 21 22 22 22 22 21 20 18 17 16 16 15 15 15 16 16 17 19 19 20 22 23 22 22 20 18 20 20 21 21 21 22 23 23 23 22 21 21 20 19 19 21 21 21 20 19 20 20 18 17
15 15 16 15 15 15 15 14 14 16 17 18 17 15 14 14 15 16 15 15 14 14 13 12 13 14 15 15 16 17 17 19 20 21 22 22 22 22 21 20 19 19 17 16 16 15 16 17 17 18 19 20 21 22 23 24 23 22 20 19 20 21 21 21 21 22 22 22 23 22 21 21 21 20 19 19 21 21 20 19 19 20 20 18 17
18 17 17 16 16 16 16 15 15 16 17 17 17 15 14 15 15 15 14 14 13 13 13 12 13 15 16 17 17 18 19 20 21 22 23 23 22 21 21 20 19 18 16 16 15 16 16 18 20 21 22 23 24 24 24 23 22 21 19 20 21 21 21 21 21 22 22 22 22 22 21 20 21 21 20 21 21 21 20 19 18 19 19 18 17
18 19 18 17 16 16 16 15 15 16 18 17 16 15 15 15 15 14 14 13 13 13 12 12 13 15 16 18 18 19 20 21 23 23 23 22 21 20 20 19 18 17 16 16 16 16 17 18 21 22 23 24 23 23 22 21 20 19 19 21 22 21 21 22 22 21 21 23 24 23 22 21 21 21 21 21 21 20 20 20 19 19 19 17 17
18 18 17 16 15 15 15 14 15 16 18 16 15 14 15 15 15 14 13 13 13 12 12 13 13 14 16 18 19 19 21 21 22 22 22 21 21 20 18 18 17 16 16 15 16 17 18 19 21 22 21 22 21 20 20 20 19 18 19 21 21 22 22 22 21 21 22 24 25 23 22 22 21 20 20 20 20 20 19 20 19 19 19 18 18
20 18 17 16 15 15 15 14 15 17 17 16 15 14 15 15 14 14 13 13 12 12 13 13 13 14 15 17 18 19 20 20 21 21 21 21 20 19 18 18 17 16 16 15 16 17 19 19 20 20 20 21 20 18 18 18 17 17 19 20 19 20 21 20 20 20 22 24 24 22 22 22 21 20 20 20 20 19 19 19 19 19 18 17 18
20 19 18 17 15 16 15 15 16 18 17 15 15 15 15 14 14 14 13 13 12 13 13 14 13 14 15 16 18 18 19 19 19 20 19 19 18 17 17 17 16 16 15 15 15 17 20 19 19 19 19 19 18 18 17 15 15 16 17 17 16 18 19 19 19 20 21 24 24 23 22 21 22 21 19 20 19 19 19 18 19 19 18 17 18
21 20 19 17 16 15 15 15 17 18 16 16 16 15 14 13 13 13 13 12 13 13 13 14 14 14 15 16 17 17 18 18 18 18 18 18 18 17 16 16 15 15 15 15 15 17 21 20 18 18 18 17 16 18 17 15 15 14 13 13 14 15 18 18 19 19 21 23 24 22 21 21 21 20 19 19 18 18 18 18 18 18 17 17 18
22 20 19 18 16 16 15 16 17 17 17 17 16 14 13 12 12 12 12 12 13 14 13 14 14 15 15 16 16 15 16 16 16 16 17 17 16 16 15 14 14 14 14 14 15 18 20 18 17 17 16 16 17 18 17 16 15 14 12 11 11 11 16 19 18 19 20 21 21 20 20 20 19 18 17 17 17 17 18 18 18 18 18 17 17
21 19 19 19 17 16 16 17 17 17 16 17 15 14 13 12 12 12 12 12 13 14 14 14 14 14 15 15 15 15 16 16 15 15 15 15 15 14 14 13 13 13 12 13 15 18 20 17 16 15 16 17 18 18 17 16 15 14 12 11 10 12 16 18 17 18 19 19 19 19 20 19 17 16 16 17 17 17 18 18 18 18 18 18 17
19 19 20 18 17 17 17 17 16 16 15 15 14 13 12 12 11 11 12 12 13 13 14 14 13 13 14 14 15 15 15 15 14 14 14 14 14 13 13 12 12 11 11 12 14 18 20 18 17 17 18 19 18 17 16 16 14 12 11 11 12 16 18 17 16 18 18 18 19 20 19 17 17 16 16 17 17 17 17 17 18 17 17 17 17
18 20 20 18 17 17 18 17 16 15 14 14 13 13 12 11 11 12 12 12 12 12 12 12 12 12 13 13 14 14 13 13 13 13 13 13 13 13 12 11 11 11 11 12 13 17 20 19 19 19 19 18 17 16 16 14 12 10 9 11 13 18 19 17 16 17 17 18 18 19 18 16 16 15 15 16 16 16 16 16 17 16 16 16 16
19 21 20 18 17 17 18 17 16 15 14 14 13 13 12 13 13 13 13 13 13 12 12 11 11 11 12 12 12 12 12 13 12 12 12 12 13 13 12 11 11 10 11 11 12 16 19 19 19 19 18 17 17 16 14 12 10 8 8 12 15 18 18 17 16 16 17 17 18 18 17 17 16 15 15 15 15 15 15 15 15 16 16 16 16
21 22 20 18 17 17 18 17 16 15 14 14 13 14 14 14 13 13 13 13 13 12 11 10 11 11 11 12 12 12 12 12 12 12 12 12 12 12 12 11 11 11 11 11 11 14 19 19 19 19 18 17 16 14 13 11 9 8 7 11 16 18 16 15 15 15 15 16 18 17 17 17 16 15 14 14 14 14 14 15 15 15 15 15 15
22 23 21 19 18 17 17 16 16 15 14 15 15 15 14 14 12 12 12 12 12 11 11 10 11 12 12 13 12 11 11 11 12 12 12 12 12 12 11 10 10 10 11 11 10 12 17 20 19 19 17 16 15 14 12 11 11 10 8 11 15 17 16 15 15 14 14 16 16 15 15 16 14 14 14 14 14 14 14 14 14 14 14 14 14
23 22 20 19 18 17 16 16 15 14 15 15 15 14 13 13 12 12 12 11 11 10 9 9 11 12 13 14 13 11 11 11 12 12 13 12 12 12 11 10 10 10 10 11 10 11 16 19 19 18 17 15 15 14 12 14 17 16 12 13 14 16 15 14 14 13 14 15 15 15 14 13 13 13 13 13 13 14 14 13 13 13 13 14 14
22 21 20 18 18 17 16 16 15 15 15 14 14 13 12 12 12 12 11 11 10 9 7 8 10 11 12 14 12 11 11 11 11 12 13 12 12 12 11 10 10 10 10 10 9 10 14 18 19 17 16 15 15 13 13 18 20 19 18 16 14 15 13 12 13 13 13 15 16 16 14 12 12 12 12 12 12 12 12 12 12 12 11 12 13
21 19 19 17 16 16 16 16 16 15 15 14 13 12 12 12 12 11 11 10 9 8 7 6 9 11 13 13 11 10 10 10 11 11 12 13 12 12 11 10 10 9 9 9 9 9 13 18 19 17 16 15 15 13 16 19 17 17 17 17 15 14 12 11 12 12 12 13 15 15 14 12 11 11 11 11 11 11 11 11 12 11 10 11 12
19 18 17 15 15 15 16 16 16 16 15 14 13 12 12 11 11 11 10 10 10 8 7 6 8 11 13 14 12 10 9 9 10 11 13 13 12 12 11 10 10 9 9 8 9 9 12 17 19 18 15 15 14 13 15 15 14 14 14 15 15 13 11 10 10 11 11 12 13 13 13 12 11 10 10 10 10 10 10 10 10 10 10 10 10
18 18 17 15 14 14 15 16 16 16 15 13 12 12 12 12 12 11 11 10 10 9 8 7 8 11 13 13 12 11 9 8 9 12 13 13 12 11 10 10 10 10 11 9 8 9 11 17 20 18 15 15 14 12 13 11 13 14 12 13 12 11 10 8 8 8 9 11 13 14 13 12 11 10 9 9 9 9 9 10 9 9 10 10 9
16 17 16 16 14 15 16 16 16 16 14 13 13 13 13 12 12 12 12 11 11 10 9 9 9 10 11 12 14 13 10 9 10 12 13 13 13 11 10 10 10 11 12 10 9 9 10 16 19 18 16 15 13 11 11 11 14 14 11 12 12 10 8 7 6 6 8 11 14 14 13 12 11 10 9 8 8 9 9 9 9 9 8 8 9
14 15 16 16 15 16 17 17 17 16 14 14 14 14 14 13 13 13 13 11 11 10 9 9 9 10 10 11 12 11 10 10 11 13 14 13 13 12 11 10 10 11 13 12 10 10 12 16 19 18 15 14 12 11 11 11 13 13 9 10 11 9 7 5 4 5 7 10 12 13 12 11 10 9 9 8 8 8 8 8 8 7 7 7 8
15 16 17 16 16 17 18 18 18 16 15 14 14 14 13 13 12 13 13 12 11 10 10 10 10 11 11 10 10 9 9 10 12 14 15 13 12 12 11 11 10 11 13 14 12 12 14 17 19 18 15 14 12 12 10 10 11 11 7 7 10 8 6 4 4 5 6 9 12 12 11 11 10 9 8 8 7 7 7 7 6 6 6 7 7
15 17 18 18 16 17 18 18 18 16 14 13 13 12 12 12 12 12 12 12 11 10 10 10 10 10 11 10 9 8 8 9 11 13 14 14 12 12 12 11 10 10 12 14 14 14 16 19 19 18 16 14 12 10 9 9 10 10 6 4 8 8 5 4 5 6 5 9 12 11 11 10 9 8 7 7 7 7 7 6 6 6 5 5 5
13 15 17 19 17 17 18 18 17 16 14 13 13 13 12 12 12 12 12 12 11 10 10 11 10 8 10 9 7 7 7 8 9 11 14 14 13 12 12 12 11 11 11 12 14 16 17 19 18 17 15 14 12 9 6 7 9 9 6 3 8 8 4 4 5 5 5 7 11 11 11 10 8 8 7 6 7 7 6 5 5 4 3 4 5
11 13 15 18 18 18 19 18 17 15 14 14 13 13 13 13 12 12 11 11 11 11 10 9 9 8 9 9 8 8 8 8 8 11 14 13 13 13 12 12 12 11 11 11 13 14 16 16 16 15 14 13 11 8 6 5 6 6 4 5 6 7 5 4 4 4 4 5 9 10 10 10 8 7 7 7 7 6 5 5 4 3 3 4 5
11 12 14 16 18 18 18 18 17 16 15 14 13 13 13 12 11 11 10 11 11 11 10 9 9 8 9 9 9 10 11 9 7 11 14 13 13 12 12 12 11 11 10 10 11 11 11 11 11 11 11 10 8 6 4 4 4 3 4 4 5 6 4 3 3 3 4 4 6 8 10 10 8 7 7 7 6 5 5 5 3 3 3 5 5
12 13 14 16 17 18 18 17 16 15 15 14 13 13 13 12 11 11 11 11 11 11 10 10 9 8 8 9 10 10 11 10 8 11 14 13 12 12 13 12 11 10 9 8 7 7 6 6 7 7 8 8 7 5 4 5 4 5 8 4 4 4 3 3 1 1 3 3 4 6 8 10 10 8 7 7 6 5 5 5 4 4 4 5 4
13 14 15 15 16 17 18 16 15 15 14 14 13 13 14 13 12 12 12 11 12 12 10 10 10 9 8 9 11 11 11 11 10 13 14 13 13 12 12 12 11 10 7 6 5 4 5 6 6 7 7 7 7 5 4 8 8 8 10 6 4 4 3 3 2 1 1 3 3 4 5 8 10 10 8 7 7 6 6 5 5 5 4 5 5
12 12 14 15 15 16 17 16 16 15 14 14 12 12 14 14 14 13 13 12 12 12 11 10 10 9 9 9 11 12 12 11 11 13 15 14 14 13 13 12 11 9 6 5 4 4 4 5 8 10 10 9 8 5 6 9 9 9 10 7 6 6 3 3 3 2 1 2 3 3 3 4 7 10 9 7 8 6 6 7 6 6 5 5 7
10 11 13 15 15 15 16 16 16 15 14 13 12 12 12 14 15 14 13 12 11 12 11 10 10 10 10 11 12 13 12 12 12 13 14 14 14 14 13 11 10 8 6 4 4 5 3 4 6 8 10 10 7 7 7 9 9 8 10 9 7 6 4 4 5 4 2 1 2 3 2 1 3 7 8 8 8 5 5 7 7 8 6 5 7
11 11 12 14 15 16 16 16 16 15 14 13 12 12 10 12 15 14 13 12 11 11 10 10 11 11 12 12 12 13 13 13 13 13 14 14 13 12 11 11 10 9 8 7 6 6 5 4 5 4 6 9 9 7 6 9 10 5 6 9 8 7 5 5 6 5 4 3 0 2 2 1 1 3 5 7 8 7 8 8 7 8 8 8 6
12 11 11 13 14 16 16 16 16 15 14 12 12 12 10 11 14 13 12 13 12 11 11 11 12 12 13 12 12 13 13 13 14 14 14 14 13 12 12 13 12 10 10 11 8 7 7 7 7 6 7 10 10 8 6 8 11 7 5 8 8 7 5 5 6 6 5 5 3 1 0 0 0 1 2 4 6 9 10 10 9 9 9 9 7
14 12 12 13 14 15 16 16 16 15 13 12 12 12 11 11 13 12 12 12 12 11 12 12 12 13 13 12 12 12 12 11 13 15 15 15 14 13 13 13 13 11 13 13 10 10 10 8 9 10 9 9 9 11 9 7 10 9 7 7 7 7 6 6 5 4 3 4 4 3 2 2 2 1 1 1 3 5 8 9 9 10 10 10 9
15 14 14 14 14 14 16 16 16 15 13 12 12 13 13 13 13 13 12 12 12 12 12 13 13 13 14 13 12 12 10 9 11 13 15 16 16 15 15 14 12 12 15 13 11 11 11 9 10 11 9 8 8 11 11 9 9 10 9 8 7 7 7 6 5 3 3 4 5 5 4 4 5 4 3 2 3 3 4 5 7 9 9 10 10
17 16 14 14 14 13 14 15 16 16 15 12 12 13 14 14 14 13 11 11 11 11 11 12 12 13 14 14 14 12 11 10 9 10 13 14 15 15 15 14 12 12 15 15 12 12 13 12 12 11 9 9 9 9 8 8 10 10 10 11 9 6 7 7 6 5 5 5 6 6 6 7 7 7 6 5 5 4 4 4 5 6 7 9 11
17 17 15 14 14 13 13 14 15 16 15 13 11 13 15 15 13 11 10 10 10 10 9 10 11 12 14 15 15 14 11 11 10 10 12 12 15 15 13 13 13 12 14 16 15 14 14 13 13 10 9 11 9 7 7 7 8 7 7 12 13 9 6 7 7 8 8 8 8 8 8 8 8 8 8 8 7 6 6 5 5 6 6 7 9
17 17 15 14 14 14 14 14 14 15 15 13 11 12 14 14 12 9 10 11 10 9 9 10 10 10 13 16 16 14 12 11 10 11 12 13 15 15 13 13 12 12 13 15 15 14 13 13 14 12 10 10 9 8 7 7 9 7 5 9 14 13 9 7 8 10 11 11 11 11 10 9 9 9 9 10 9 9 8 8 7 7 8 8 8
16 16 15 15 14 14 14 15 15 15 14 13 12 12 14 14 11 10 11 12 11 10 10 10 10 10 12 14 15 14 14 12 11 12 12 13 14 14 15 14 13 13 13 14 15 14 13 12 14 14 12 10 9 9 9 8 9 9 7 6 10 14 13 10 10 12 14 14 13 13 12 11 11 11 11 11 11 11 10 9 9 9 10 9 9
14 15 15 15 16 15 15 15 15 16 15 14 14 14 14 14 13 12 13 13 12 12 13 12 11 11 12 13 14 15 15 14 12 13 13 13 13 13 15 15 14 14 14 15 16 16 15 13 13 14 13 10 9 10 10 9 9 10 9 7 7 11 14 13 12 13 14 15 14 14 15 14 13 13 14 13 13 12 12 12 11 11 11 11 11
13 14 14 16 16 16 16 17 17 17 17 17 17 17 16 16 15 15 16 16 15 15 15 14 13 13 13 13 14 14 15 15 14 14 14 14 14 12 14 16 16 15 14 14 15 16 15 14 13 13 13 11 10 10 10 9 9 9 8 8 8 10 13 15 14 14 15 15 14 15 15 15 16 16 16 16 16 15 14 14 14 14 13 13 13
14 15 16 17 16 16 17 18 19 18 19 19 18 19 19 18 18 17 17 17 17 17 17 16 15 14 14 14 14 14 14 15 15 14 15 15 16 15 14 16 17 16 15 13 13 15 15 15 15 15 14 12 11 10 10 9 8 7 5 3 5 8 11 15 16 16 16 15 15 16 15 16 17 17 18 18 18 18 16 16 16 16 16 15 15
14 15 17 18 17 17 18 19 20 20 20 20 20 20 19 19 18 18 17 17 17 18 18 17 16 16 16 16 16 16 16 15 14 14 14 15 17 17 17 17 17 17 17 15 15 16 16 17 17 16 15 13 12 11 11 10 9 8 4 1 2 2 5 10 15 18 17 16 15 16 16 15 15 16 17 18 18 19 18 17 17 17 17 17 16
14 15 17 19 20 20 20 20 21 20 20 20 21 20 19 18 17 17 16 16 16 17 18 18 18 18 18 18 17 16 17 17 15 14 14 15 16 17 18 18 18 18 18 18 18 18 18 18 17 17 16 15 14 12 12 13 12 9 4 1 1 1 1 4 8 14 16 15 14 15 14 13 13 14 15 16 18 19 19 19 18 18 17 17 18
14 15 17 19 21 21 21 21 21 20 19 19 19 19 18 17 16 15 15 15 15 16 17 19 19 19 19 19 18 17 16 17 17 16 15 15 15 16 17 19 20 19 19 19 20 19 19 19 17 16 17 16 15 13 13 14 14 12 8 4 2 1 2 2 3 6 11 13 13 13 12 12 12 13 15 16 17 18 20 20 19 18 18 17 18
16 16 16 18 19 19 19 19 19 19 18 17 17 17 17 16 15 15 16 15 16 17 18 20 21 21 21 20 19 18 16 16 17 17 16 16 16 17 17 19 20 20 21 21 21 20 19 19 18 17 17 17 16 14 14 14 14 14 13 9 4 3 4 2 1 1 4 10 11 11 11 11 11 12 13 15 17 16 16 17 17 16 16 16 17
18 17 17 17 17 17 15 15 15 16 16 15 15 15 16 16 16 16 17 17 17 19 19 20 21 21 21 20 20 20 19 19 18 18 18 17 17 18 19 20 20 20 21 22 22 22 21 19 19 18 17 16 17 16 16 15 14 14 15 13 10 8 7 5 4 1 1 5 9 10 11 11 11 11 11 13 14 13 12 13 13 14 14 14 15
19 18 19 18 17 16 14 13 13 13 14 14 15 15 16 17 16 17 19 18 19 19 18 18 19 19 20 20 20 20 21 21 21 20 20 19 19 19 20 21 22 21 21 22 22 21 21 20 20 19 18 17 18 18 17 16 15 15 15 15 13 11 10 9 10 7 2 1 4 6 9 10 11 12 12 13 13 13 14 13 13 13 12 13 14
21 20 20 20 18 16 15 14 14 14 14 14 15 16 16 16 16 17 18 18 18 18 17 17 17 18 19 19 19 19 19 21 22 22 22 22 21 21 20 21 23 22 21 21 21 20 20 21 21 20 19 19 18 18 18 18 17 15 14 14 13 12 10 8 10 11 7 3 3 3 5 6 7 9 11 13 14 14 15 14 14 13 12 11 12
22 21 20 20 20 19 17 16 16 16 15 15 16 16 16 16 16 17 17 18 17 16 16 16 17 17 18 18 18 19 19 19 20 21 22 24 24 23 22 21 22 23 23 22 21 20 20 21 21 20 20 19 19 18 19 19 19 17 15 13 13 13 10 6 7 10 8 5 3 4 5 5 5 7 8 10 12 13 14 15 14 13 12 10 10
23 22 20 19 21 21 19 18 19 18 18 16 16 16 17 17 16 15 16 16 16 15 15 16 17 18 19 19 18 18 18 18 18 19 20 22 24 24 23 22 21 22 24 23 22 20 20 21 22 22 21 21 20 20 19 19 19 19 18 17 16 15 12 8 8 8 6 5 4 3 6 6 6 8 7 6 8 10 12 12 12 11 10 9 8
Wind_Direction
146 144 139 145 140 138 134 134 130 133 138 136 133 129 125 120 121 122 120 115 109 105 103 104 107 109 107 109 112 112 114 115 116 116 115 114 113 112 111 110 109 108 108 107 106 105 103 100 99 100 105 107 102 101 100 99 98 99 102 104 109 116 114 110 107 101 96 93 91 89 88 89 88 88 90 88 84 80 78 78 79 82 82 81 81
154 149 145 149 145 141 140 138 135 136 139 137 131 125 119 116 120 120 117 113 110 108 106 106 105 107 109 110 112 112 115 116 115 115 115 114 113 113 112 111 110 109 107 105 104 102 103 102 101 101 103 105 102 102 101 101 102 102 105 109 112 112 109 106 102 97 95 93 92 90 89 91 91 91 93 90 84 80 79 79 80 84 84 81 80
158 154 151 151 150 145 142 138 135 138 138 133 126 121 117 118 120 118 117 114 113 110 108 105 103 108 111 112 112 112 115 116 115 115 115 115 114 113 112 111 110 107 105 102 100 99 102 105 105 103 103 104 103 102 100 102 104 105 106 109 110 108 105 104 102 100 99 97 96 95 94 95 95 94 93 90 86 84 83 83 83 83 84 82 82
161 155 154 152 152 145 139 134 133 136 134 129 123 122 122 122 121 119 117 117 115 111 109 105 103 107 112 114 112 114 115 115 116 115 115 115 113 111 110 109 107 104 101 99 97 99 103 109 111 108 108 105 105 104 103 105 107 109 109 107 106 105 105 105 103 102 101 98 99 99 95 94 94 94 93 90 88 87 86 85 83 82 83 83 83
160 153 152 150 148 141 136 131 132 134 133 128 125 125 126 125 122 121 120 118 115 111 108 105 106 110 113 114 113 115 116 117 117 115 115 113 111 109 109 108 105 101 98 96 94 101 106 111 116 114 114 112 111 110 107 108 110 111 109 105 104 106 108 106 104 104 104 100 101 102 99 98 96 95 94 92 90 89 87 85 84 82 82 83 84
155 151 151 150 148 142 139 135 134 136 134 130 129 130 128 126 124 124 123 119 114 111 107 105 110 112 113 114 115 116 116 117 116 114 114 111 110 110 110 108 103 98 94 92 92 103 107 108 115 114 114 116 115 112 108 109 113 114 109 105 105 108 108 106 105 107 108 105 103 104 104 104 102 99 97 94 92 91 88 86 85 83 82 82 83
154 152 152 152 149 145 143 140 138 139 136 133 132 130 128 127 126 125 125 121 116 112 107 110 114 112 112 114 116 117 116 116 115 115 114 113 111 109 109 105 99 94 90 89 91 105 111 108 111 110 111 113 114 116 114 111 113 114 110 108 111 112 108 106 107 108 109 106 102 101 102 102 101 100 99 96 93 92 90 88 85 83 82 83 83
153 152 152 150 146 143 142 141 141 141 138 136 132 129 129 129 128 127 127 124 118 112 111 116 115 114 115 115 116 117 118 118 117 116 116 115 111 107 104 100 95 91 89 85 88 108 114 109 109 110 112 112 117 124 123 119 118 117 111 106 111 114 115 113 108 110 110 107 106 106 107 105 103 101 99 97 95 95 93 90 87 85 83 84 84
150 151 151 146 141 140 141 143 144 142 139 136 131 130 132 130 129 128 129 125 119 116 115 118 118 118 117 117 117 115 116 118 117 116 117 114 108 106 102 98 93 89 89 82 87 113 116 108 111 113 112 117 125 128 126 125 124 123 118 111 109 107 118 121 110 111 112 111 112 113 113 109 104 102 100 100 100 98 95 96 93 87 84 85 87
148 150 150 142 138 140 141 145 145 142 138 135 131 134 135 132 132 131 131 125 121 119 117 117 119 118 117 119 118 116 115 116 116 116 118 116 108 106 103 98 92 87 87 80 90 119 123 113 114 116 121 127 129 129 127 126 125 123 119 109 105 105 121 130 116 111 112 113 115 114 115 111 106 103 103 104 104 100 96 97 94 90 86 85 87
148 149 146 138 137 141 141 141 140 139 135 135 136 138 137 134 133 132 131 127 123 121 120 120 121 118 118 120 117 116 116 116 116 115 119 118 112 108 105 99 95 91 89 83 95 123 131 126 126 128 131 131 129 129 128 127 123 119 111 93 102 120 131 137 121 112 113 115 117 116 115 111 106 104 105 107 107 104 99 96 94 93 89 85 84
149 148 142 136 139 141 140 137 135 135 134 139 142 138 134 130 129 129 129 129 128 125 126 127 127 125 124 122 118 117 117 117 116 116 118 118 115 111 108 104 103 98 92 85 99 129 138 137 137 135 134 132 131 132 128 125 117 108 99 84 108 131 134 133 122 116 115 116 117 116 115 111 108 107 108 109 107 107 103 100 98 95 91 88 86
148 147 142 139 141 140 138 135 133 134 136 140 140 136 134 132 131 130 130 132 132 130 131 133 134 133 131 128 124 122 121 120 119 121 121 119 118 115 113 110 108 99 91 86 100 132 144 143 141 137 135 135 135 132 124 113 101 92 82 87 118 137 134 128 121 117 115 116 117 117 117 112 109 110 110 108 106 105 102 99 98 97 95 92 89
148 147 144 141 139 138 135 134 136 136 138 138 139 139 138 138 138 137 136 135 134 134 137 139 139 138 136 134 131 129 127 126 125 126 124 123 122 119 118 113 108 99 89 85 100 132 147 148 144 140 138 138 135 126 112 97 81 73 75 101 129 142 136 127 120 118 117 118 120 120 119 115 113 113 112 109 106 105 102 99 97 97 97 94 93
150 148 144 139 138 137 135 138 141 140 140 140 144 145 142 144 145 142 140 138 135 135 139 146 148 144 140 138 137 135 136 135 132 130 126 125 125 123 122 117 111 101 88 84 98 130 149 152 146 143 142 139 130 114 101 85 72 68 83 112 135 147 139 129 122 119 120 122 123 119 114 113 113 113 113 110 110 108 104 102 98 97 97 95 95
150 147 140 139 139 138 140 145 144 142 142 144 148 146 145 146 146 143 141 140 135 134 139 149 152 147 144 143 142 145 148 145 139 133 128 129 130 129 126 121 113 100 87 83 96 126 147 152 149 146 144 136 120 108 97 83 76 79 100 119 138 148 140 130 126 122 123 126 123 115 111 111 112 111 111 111 111 109 105 103 99 103 103 97 94
148 143 139 141 142 142 146 147 144 143 144 146 147 146 145 144 145 144 140 140 136 133 135 143 149 146 145 145 146 150 154 149 142 135 132 134 134 133 130 123 114 100 86 82 94 123 145 151 151 149 143 130 117 109 96 88 81 86 110 127 140 147 141 131 125 125 127 129 125 119 116 115 114 111 111 112 110 108 106 103 105 110 106 99 97
146 143 140 142 145 147 149 147 146 147 148 148 147 146 145 144 146 144 140 140 136 132 131 137 147 148 146 144 145 148 149 149 147 140 135 138 138 136 132 124 116 100 86 82 93 119 144 152 153 151 142 126 119 112 100 96 81 83 114 132 139 142 139 131 124 127 130 131 130 127 122 118 117 115 115 113 110 109 108 106 110 112 105 104 104
144 146 143 146 151 152 153 150 151 153 154 152 150 150 148 149 149 147 144 139 134 130 131 137 147 151 148 143 144 144 142 146 150 147 141 142 142 138 133 125 117 102 89 85 93 115 144 154 155 152 141 128 124 115 107 101 79 81 114 134 141 142 137 131 125 125 129 131 132 127 123 122 124 122 120 116 113 112 110 112 114 111 107 108 106
145 149 149 153 154 155 157 153 156 157 159 158 155 154 152 154 152 151 149 143 138 134 135 141 146 147 145 145 149 150 146 145 148 148 145 145 143 139 136 129 120 106 94 88 96 113 141 155 157 153 141 133 129 119 110 99 80 86 122 141 146 146 137 131 124 124 129 134 131 126 126 129 129 127 124 119 118 116 115 116 116 112 108 109 106
146 151 152 157 158 160 160 158 162 163 165 166 162 159 156 157 154 154 153 147 143 140 142 145 147 145 147 154 158 159 157 153 147 146 147 146 144 141 141 134 125 112 99 90 98 112 137 154 158 153 143 138 133 122 112 96 82 85 121 149 155 151 140 132 125 126 135 142 139 134 133 132 131 131 127 123 120 117 119 119 116 113 108 109 109
149 156 157 161 163 164 164 164 169 171 174 173 169 164 162 163 159 157 155 151 148 147 147 142 139 139 143 151 156 160 161 159 150 148 152 148 144 144 145 140 131 121 106 94 101 114 133 150 155 151 145 141 134 124 113 97 85 77 97 145 158 154 143 135 126 122 134 146 143 136 134 132 134 135 131 129 124 118 123 124 120 115 110 112 113
153 162 164 166 168 167 167 170 174 178 180 177 175 171 168 168 163 161 158 155 155 151 148 140 131 128 128 131 136 141 146 154 152 152 156 151 147 147 148 146 138 130 115 104 106 118 132 145 151 150 144 139 133 126 115 101 86 66 73 142 165 160 152 141 119 109 124 142 138 135 135 136 139 138 136 135 130 127 126 126 125 120 114 117 118
158 168 168 171 174 171 171 175 180 182 182 181 180 178 175 174 169 167 164 159 158 154 151 147 142 135 128 125 125 125 129 143 151 156 158 156 153 152 153 151 146 141 130 119 116 122 133 142 147 146 141 136 133 127 120 106 82 56 57 148 179 170 156 139 112 96 110 140 142 141 143 143 144 143 143 141 138 139 135 129 129 128 124 127 128
165 172 173 174 177 176 177 178 182 184 186 187 185 184 181 180 178 173 170 165 163 163 161 156 155 151 139 138 143 140 137 144 157 165 163 162 159 159 159 155 155 150 143 138 131 130 134 140 144 144 141 137 133 129 132 119 84 57 55 123 180 176 162 139 110 88 96 137 149 149 149 147 148 149 149 149 145 145 145 145 141 141 144 146 140
171 178 180 179 180 181 183 180 181 184 190 195 191 189 186 183 184 179 177 174 171 173 174 169 166 167 159 158 169 167 164 165 172 174 169 166 164 164 162 160 164 157 149 149 142 140 140 143 147 147 148 146 142 137 139 133 90 66 78 109 159 170 162 141 105 84 87 129 156 156 155 152 155 159 156 157 155 154 156 159 165 171 167 160 155
177 183 186 187 186 185 187 185 184 187 193 200 197 194 191 188 188 186 187 184 183 184 187 188 183 183 178 176 183 182 183 185 186 181 175 171 169 167 165 165 169 162 156 154 148 149 151 154 160 163 167 167 167 165 164 167 117 116 157 130 149 166 158 142 102 79 74 107 157 163 164 162 164 164 163 167 166 173 171 169 181 180 169 168 168
185 188 191 193 191 189 190 189 188 193 198 201 201 200 197 196 197 197 198 197 198 197 197 201 200 197 190 187 192 192 189 193 197 186 179 175 174 172 168 169 169 166 164 164 163 168 175 186 195 200 203 207 212 219 237 212 167 169 192 177 167 179 175 169 141 86 61 77 142 168 176 171 170 168 174 179 175 189 188 180 192 191 183 186 189
193 193 197 197 193 190 192 193 192 196 201 202 205 207 203 202 206 208 208 209 211 209 207 211 214 212 207 195 193 195 192 196 192 181 180 177 176 176 173 171 169 169 173 184 202 214 227 239 243 249 250 250 245 245 232 202 173 172 197 212 218 205 197 199 197 204 55 59 112 159 175 177 179 176 179 192 190 196 200 197 208 211 207 203 211
200 202 203 202 198 194 195 197 197 198 201 204 209 212 210 207 210 215 214 216 220 219 217 219 220 220 222 214 202 199 196 195 185 175 181 179 177 178 174 173 171 176 187 200 221 229 243 255 258 264 268 268 254 228 193 185 176 179 196 216 232 224 219 228 230 236 274 49 89 130 155 178 189 181 179 199 201 197 201 206 216 220 226 224 222
206 213 213 209 205 200 200 201 202 204 203 207 211 213 217 216 215 217 216 219 225 227 226 223 223 219 222 224 211 204 199 196 188 179 182 180 178 180 180 184 190 200 209 220 227 219 232 250 255 265 264 253 228 199 183 177 182 195 205 211 221 222 225 245 244 247 264 329 81 110 140 155 191 188 186 197 201 209 218 216 221 220 243 274 233
210 220 220 216 212 209 208 207 208 210 209 212 213 212 222 224 219 217 219 225 229 230 231 231 229 217 216 218 208 207 209 206 200 190 187 186 187 191 195 200 208 217 218 229 234 218 220 214 213 245 238 206 181 183 196 188 191 204 215 206 207 216 227 249 247 254 263 253 173 109 129 108 132 194 197 193 195 211 219 220 227 219 242 278 249
208 215 219 220 219 217 214 213 215 217 217 217 217 217 222 218 215 217 222 229 234 234 233 236 233 219 217 213 202 211 219 215 209 203 199 201 202 204 211 214 217 220 211 215 215 197 202 194 187 197 186 175 176 194 204 192 198 211 216 202 203 214 235 259 255 261 257 241 238 213 117 45 74 157 198 193 195 211 215 218 225 215 228 258 250
207 207 212 219 222 220 218 217 220 222 223 225 227 225 220 208 211 219 222 231 240 240 235 236 231 220 220 216 202 211 222 218 213 210 209 211 212 214 218 218 214 208 200 201 199 191 196 184 174 180 175 178 194 202 199 188 197 208 212 212 217 216 230 258 254 249 231 224 237 246 265 288 285 264 229 216 208 219 225 225 223 212 216 237 244
206 206 207 214 220 220 220 221 224 225 225 229 231 225 214 205 214 222 221 229 236 238 239 237 231 222 222 221 213 215 219 213 212 213 211 212 216 218 217 212 203 196 192 193 195 192 192 187 179 175 174 187 193 195 202 204 205 207 206 211 217 208 216 241 249 242 223 223 237 252 268 275 279 273 274 274 248 240 243 240 231 223 224 235 242
206 208 206 209 216 217 217 220 222 224 222 224 224 218 210 205 214 219 217 225 229 231 235 231 229 227 224 222 222 222 213 208 210 206 207 214 215 211 209 207 204 196 192 193 194 191 190 193 189 174 172 186 186 191 201 206 207 210 215 217 213 197 203 221 245 258 246 239 248 261 267 269 277 275 272 273 268 266 259 257 253 246 242 241 242
207 209 207 207 210 208 210 214 216 219 218 217 214 208 204 203 212 215 211 218 221 219 216 214 220 226 224 222 225 227 216 210 211 198 198 207 206 204 204 203 201 194 194 198 198 196 195 194 189 181 183 186 181 187 199 201 203 209 221 223 221 214 210 218 234 247 245 245 250 257 262 266 272 273 273 273 270 270 267 265 264 261 256 249 247
203 206 206 206 205 202 204 209 211 210 209 210 205 199 199 202 210 217 213 212 213 210 206 208 215 224 226 223 226 231 226 218 214 206 200 198 201 207 209 201 198 196 197 199 198 197 197 196 198 199 199 191 180 186 202 210 213 214 206 217 225 224 225 233 234 235 240 244 245 250 256 261 267 270 273 273 272 271 269 268 265 264 260 257 257
199 200 200 201 201 198 202 208 207 203 202 205 201 198 199 200 207 213 210 210 214 213 213 216 216 222 229 226 228 233 232 226 221 218 212 203 204 213 215 210 209 209 207 203 200 198 195 194 203 207 205 197 191 200 213 218 219 217 202 208 227 226 228 239 241 235 238 244 247 250 251 254 262 267 268 271 271 270 269 268 265 266 266 264 264
195 196 196 198 200 198 201 204 205 202 201 202 202 202 199 199 204 205 203 206 210 211 214 219 220 221 225 228 231 233 233 231 227 226 225 219 216 217 218 215 215 217 215 212 209 207 201 198 204 209 206 198 197 208 219 222 219 217 218 226 227 225 229 235 243 242 240 243 246 248 249 251 257 260 264 267 269 269 269 268 266 268 270 267 265
185 190 190 193 200 203 202 200 199 201 202 202 202 204 203 201 204 204 204 206 207 205 208 216 221 219 219 224 228 230 232 234 232 229 229 230 226 219 216 214 215 220 222 222 219 214 209 209 213 210 207 202 200 208 215 214 212 216 231 243 234 228 229 232 240 243 241 244 243 243 247 251 255 258 261 263 265 267 269 269 268 269 271 270 268
177 184 187 190 200 206 205 199 197 200 205 207 207 209 210 210 211 211 211 212 214 214 215 220 224 223 218 219 223 225 227 231 235 233 229 232 231 224 217 215 218 223 226 225 223 220 217 219 220 213 207 206 208 210 208 202 197 198 207 242 248 244 238 235 239 242 243 245 244 244 248 251 254 258 259 260 262 265 268 270 269 269 270 271 271
173 179 184 189 196 204 206 203 201 203 208 212 215 216 216 218 220 221 221 220 222 223 226 227 228 229 226 222 226 229 230 230 234 235 231 231 234 232 227 222 221 224 226 224 223 225 225 224 224 220 213 208 211 211 206 201 190 173 156 182 249 254 256 244 239 240 241 244 246 247 249 251 253 255 256 258 260 262 267 268 267 268 271 274 276
178 180 185 190 195 200 203 204 206 209 212 215 218 219 220 222 224 227 229 228 228 229 230 231 230 233 233 230 231 235 238 233 232 238 237 233 235 237 236 230 226 224 227 227 225 226 227 225 224 224 219 212 213 212 204 204 201 184 156 142 169 146 274 260 247 243 239 239 244 245 247 252 253 252 254 258 260 261 265 266 266 269 272 276 278
190 188 190 194 197 200 202 205 208 212 216 216 215 216 218 219 222 226 229 230 231 232 231 230 230 232 234 233 231 236 239 233 232 239 240 239 238 239 239 236 232 228 229 230 229 229 230 230 228 225 224 220 218 216 207 206 211 211 199 167 121 146 224 247 280 257 234 232 238 240 243 250 253 254 256 258 260 262 263 264 267 269 271 273 274
199 197 198 199 201 203 204 206 211 215 217 215 210 212 215 217 220 221 223 225 227 227 227 228 229 230 232 232 231 233 234 229 231 236 237 239 241 241 241 239 237 233 231 230 232 234 234 234 234 232 231 228 224 219 214 209 208 215 215 209 204 195 202 203 64 317 245 235 235 236 241 246 250 256 259 257 258 259 256 256 262 265 267 270 271
200 202 204 205 204 204 204 206 212 216 216 212 210 213 218 222 224 224 224 224 225 227 229 231 232 233 235 237 237 237 236 234 233 236 237 238 240 243 244 242 240 237 235 233 234 236 237 236 236 237 237 234 228 224 220 211 205 212 217 221 224 221 227 229 205 181 315 251 237 233 239 243 245 251 255 253 252 249 242 245 256 264 270 273 272
199 198 200 203 203 206 208 209 213 216 217 214 213 216 219 223 227 229 229 230 233 235 237 238 239 240 242 243 244 243 242 241 238 239 241 240 239 242 246 245 242 240 238 237 236 237 238 238 238 239 240 238 234 231 226 217 212 214 214 218 229 234 235 236 232 223 177 204 252 243 240 244 248 250 250 246 242 241 243 249 257 267 278 279 271
198 196 197 200 202 206 208 211 215 218 220 217 216 218 220 224 227 229 231 235 241 245 248 251 250 250 250 249 249 249 249 247 243 242 242 241 241 243 247 246 243 241 240 240 239 239 238 239 239 238 239 240 239 238 234 230 227 225 221 219 223 227 229 234 236 227 206 195 249 251 236 245 261 260 251 245 244 246 250 255 258 265 278 282 273
196 194 198 202 203 202 205 210 212 213 216 216 216 219 222 227 230 231 235 240 245 250 254 256 255 255 253 250 250 251 253 252 248 244 242 240 241 245 247 247 245 244 244 243 242 241 240 240 240 240 240 241 241 242 240 240 240 238 233 224 215 215 220 221 211 210 205 201 221 248 246 250 269 278 272 255 250 253 255 257 258 262 272 278 268
194 192 195 200 198 197 200 205 210 211 211 212 213 217 219 223 229 234 238 241 245 250 254 255 254 252 248 246 248 251 253 255 253 249 245 242 241 243 245 247 249 248 247 247 246 245 244 242 242 242 241 240 242 246 245 243 243 243 241 237 232 226 222 218 208 205 204 196 192 238 254 258 266 276 287 271 253 257 259 258 256 261 272 271 260